STARLINK-35634, 66173

Orbit data source: Space-Track

STARLINK-35634, 66173 is a payload satellite owned by SpaceX/Seattle (US) in LEO that was launched on Sat, 25 Oct 2025 UTC via an FALCON 9 launch vehicle from the Air Force Eastern Test Range (AFETR). Payload-class satellites include a variety of spacecraft equipped with specific instruments for various scientific and technological missions. These include communications satellites like Starlink; space stations such as the ISS; scientific satellites like the Hubble; Earth observation satellites from companies like Planet Labs, Umbra, and HawkEye 360; GPS; miniature CubeSats for education and research; and military/defense satellites.

Loading next visibility...
Identifier
66173, 2025-240AD
Orbit
LEO
Country
Flag of USUS
Related business
Manufacturer
SpaceX/Seattle
Mission
Operational Commercial Communications
Bus & Motor
STARLINK V2MO, Unknown motor
Mass
575 kg wet, ~530 kg dry
Launch date (UTC)
2025-10-25 (8 months ago)
Launch vehicle
FALCON 9
Launch site
Air Force Eastern Test Range (AFETR)
Object type
Payload
Rocket body
Debris
Shape & HBR
Box + 2 Pan, 17.7 m
Radar Cross Section
36.964 m², Large (>1 m²)

Expand to show TLE details & history
Last TLE update: 22 hours ago

TLE from 22 hours ago
0 STARLINK-35634
1 66173U 25240AD  26170.93431070  .00017595  00000-0  53049-3 0  9990
2 66173  53.1597 306.3917 0001027  74.6756 285.4360 15.34409707 37669
Epoch: 2026-06-19T22:25Z
TLE epoch observation values (Epoch: 2026-06-19T22:25:24.444Z)
Latitude
-0.00003°
Longitude
61.88367°
Altitude
463.389 km
Speed
7.636 km/s
True Right ascension
20h 25m 34s
True Declination
0° 00' 00"
Sunlit
Object was in full shadow at epoch
Visualization orbit readout
Latitude
Unknown
Longitude
Unknown
Altitude
Unknown
Speed
Unknown
Apparent Right ascension
Unknown
Apparent Declination
Unknown
Sunlit
N/A
Visualization observer readout
Local Sidereal Time
07:17:45
Azimuth
Unknown
Elevation
Unknown
Doppler factor
Unknown
Orbital elements
Apogee altitude
463.634 km
Perigee altitude
462.229 km
Semi-major axis
6,841.068 km
Eccentricity
0.0001
Inclination
53.1597°
RAAN
306.3917°
Arg. of periapsis
74.6756°
True anomaly
285.42466°
Mean anomaly
285.436°
Eccentric anomaly
285.43033°
Mean motion
3.83581 °/min
Orbital period
93.85 mins
BSTAR
0.00053049
Loading maneuver chart data...
Computing Atmospheric mass density...
Loading historical data...
Loading historical data...
Loading historical data...
Loading historical data...
Loading historical data...
Loading historical data...
Loading historical data...

Documentation

Showing up to 5 results
|